Location: Roanoke
(37.2710°N, 79.9420°W)
Time: 21:24:24
(UTC-05:00)

S-56A Canister/Altair - Pass Details

Date: 23 November 2019
Orbit: 632 x 2500 km, 38.9° (Epoch: 14 December)

Event Time Altitude Azimuth Distance (km) Brightness Sun altitude
Rises 18:08:48 0° 270° (W) 5,332 13.4 -12.7°
Reaches altitude 10° 18:12:47 10° 272° (W) 4,050 12.5 -13.5°
Maximum altitude 18:22:53 80° 359° (N) 1,269 8.5 -15.4°
Enters shadow 18:27:24 23° 84° (E) 2,024 9.0 -16.3°
Drops below altitude 10° 18:29:22 10° 87° (E) 2,674 - -16.7°
Sets 18:31:31 0° 88° (E) 3,447 - -17.1°
